Location: Auckland
(36.8670°S, 174.7670°E)
Time: 03:20:35
(UTC+13:00)

Cosmos 540 Rocket - Pass Details

Date: 24 January 2019
Orbit: 741 x 753 km, 74.1° (Epoch: 17 February)

Event Time Altitude Azimuth Distance (km) Brightness Sun altitude
Rises 22:09:51 0° 190° (S) 3,238 7.6 -16.3°
Reaches altitude 10° 22:12:24 10° 182° (S) 2,305 6.6 -16.7°
Maximum altitude 22:17:16 38° 113° (ESE) 1,142 4.2 -17.4°
Enters shadow 22:19:07 29° 71° (ENE) 1,366 4.3 -17.7°
